GW0492 Weather Reports


time (UTC)temp
F
wind
direction
speed
knots
gust
knots
rain 1hr
in
rain 24hr
in
rain mn
in
humidity
%
barometer
mb
20260506002015 76 68 2.6 7.8 0.00 0.02 0.02 41 994.4
20260506001035 77 68 1.7 7.0 0.00 0.02 0.02 41 994.2
20260506000017 77 90 3.5 8.7 0.00 0.02 0.02 40 994.2
20260505235017 77 90 3.5 7.8 0.00 0.02 0.02 39 994.2
20260505234017 78 90 3.5 9.6 0.00 0.02 0.02 39 994.0
20260505233017 78 90 1.7 7.0 0.00 0.02 0.02 39 994.0
20260505232017 78 90 3.5 13.0 0.00 0.02 0.02 38 993.9
20260505231017 79 113 4.3 9.6 0.00 0.02 0.02 37 993.8
20260505230017 79 90 4.3 14.8 0.00 0.02 0.02 37 993.8
20260505225017 80 113 2.6 8.7 0.00 0.02 0.02 37 993.7
20260505224017 81 113 3.5 14.8 0.00 0.02 0.02 36 993.8
20260505223017 81 113 3.5 15.6 0.00 0.02 0.02 35 993.7
20260505222017 82 68 4.3 12.2 0.00 0.02 0.02 34 993.6
20260505221017 82 90 1.7 8.7 0.00 0.02 0.02 35 993.5
20260505220017 82 90 5.2 11.3 0.00 0.02 0.02 33 993.4
20260505215017 82 90 3.5 11.3 0.00 0.02 0.02 34 993.6
20260505214017 82 113 5.2 15.6 0.00 0.02 0.02 34 993.6
20260505213017 82 90 5.2 12.2 0.00 0.02 0.02 36 993.6
20260505212037 82 90 2.6 7.0 0.00 0.02 0.02 36 993.5
20260505211017 83 68 1.7 12.2 0.00 0.02 0.02 34 993.6
20260505210037 83 90 2.6 9.6 0.00 0.02 0.02 34 993.5
20260505205017 83 113 6.1 20.9 0.00 0.02 0.02 32 993.6
20260505204037 83 113 3.5 10.4 0.00 0.02 0.02 35 993.6
20260505203017 82 90 7.0 17.4 0.00 0.02 0.02 34 993.4
20260505202017 83 68 6.1 16.5 0.00 0.02 0.02 34 993.5
20260505201057 83 90 5.2 16.5 0.00 0.02 0.02 33 993.4
20260505200017 82 90 5.2 13.0 0.00 0.02 0.02 35 993.6
20260505195017 84 68 4.3 13.9 0.00 0.02 0.02 35 993.7
20260505194017 84 113 2.6 12.2 0.00 0.02 0.02 36 993.8
20260505193017 84 113 2.6 12.2 0.00 0.02 0.02 34 993.8
20260505192017 84 90 2.6 9.6 0.00 0.02 0.02 36 993.9
20260505191016 84 45 2.6 13.0 0.00 0.02 0.02 36 993.8
20260505190037 84 113 4.3 13.0 0.00 0.02 0.02 36 994.1
20260505185017 84 113 2.6 12.2 0.00 0.02 0.02 33 994.2
20260505184017 84 158 1.7 7.8 0.00 0.02 0.02 36 994.2
20260505183016 84 158 2.6 10.4 0.00 0.02 0.02 33 994.4
20260505182017 83 135 2.6 10.4 0.00 0.02 0.02 33 994.5
20260505181017 83 248 2.6 8.7 0.00 0.02 0.02 35 994.6
20260505180017 84 158 3.5 13.0 0.00 0.02 0.02 33 994.7
20260505175017 84 90 4.3 12.2 0.00 0.02 0.02 36 995.0
20260505174017 84 113 2.6 8.7 0.00 0.02 0.02 35 995.0
20260505173017 83 113 2.6 7.0 0.00 0.02 0.02 36 995.0
20260505172016 83 113 2.6 8.7 0.00 0.02 0.02 37 995.3
20260505171016 82 90 3.5 14.8 0.00 0.02 0.02 38 995.3
20260505170017 82 90 3.5 8.7 0.00 0.02 0.02 42 995.4
20260505165016 81 0.0 0.9 0.00 0.02 0.02 41 995.5
20260505164036 81 135 2.6 9.6 0.00 0.02 0.02 41 995.8
20260505163016 80 180 2.6 6.1 0.00 0.02 0.02 42 996.0
20260505162016 80 113 2.6 9.6 0.00 0.02 0.02 42 996.0
20260505161017 79 113 2.6 10.4 0.00 0.02 0.02 44 996.1
20260505153016 78 90 2.6 10.4 0.01 0.02 0.02 45 996.4
20260505152036 77 203 1.7 7.0 0.01 0.02 0.02 47 996.5
20260505151036 76 90 2.6 6.1 0.01 0.02 0.02 49 996.6
20260505125036 61 0.0 0.0 0.00 0.01 0.01 81 997.5
20260505124016 60 0.0 0.0 0.00 0.01 0.01 83 997.3
20260505123056 59 0.0 0.0 0.00 0.01 0.01 86 997.3
20260505122016 58 0.0 0.0 0.00 0.01 0.01 88 997.2
20260505121016 57 0.0 0.9 0.00 0.01 0.01 90 997.2
20260505120036 56 0.0 0.0 0.00 0.01 0.01 91 997.3
20260505115036 55 0.0 1.7 0.00 0.01 0.01 94 997.3
20260505114016 54 0.0 0.0 0.00 0.01 0.01 94 996.9
20260505113016 53 0.0 0.0 0.00 0.01 0.01 93 997.0
20260505112016 52 0.0 0.0 0.00 0.01 0.01 93 996.9
20260505111056 52 0.0 0.0 0.00 0.01 0.01 92 996.8
20260505102035 52 0.0 0.0 0.00 0.01 0.01 90 996.7
20260505101015 53 0.0 0.0 0.00 0.01 0.01 90 996.5
20260505100016 53 0.0 0.0 0.00 0.01 0.01 89 996.6
20260505095016 53 0.0 0.0 0.00 0.01 0.01 89 996.6
20260505094016 54 0.0 0.0 0.00 0.01 0.01 89 996.6
20260505093016 54 0.0 0.0 0.00 0.01 0.01 89 996.5
20260505092016 54 0.0 0.0 0.01 0.01 0.01 88 996.7
20260505091016 54 0.0 0.0 0.01 0.01 0.01 88 996.6
20260505090036 54 0.0 0.0 0.01 0.01 0.01 86 996.7
20260505085056 54 0.0 0.0 0.01 0.01 0.01 84 996.6
20260505084015 55 0.0 0.0 0.01 0.01 0.01 82 996.8
20260505083016 56 0.0 0.0 0.01 0.01 0.01 78 996.6
20260505082015 56 0.0 0.0 0.00 0.00 0.00 74 996.9
20260505081015 56 0.0 0.0 0.00 0.00 0.00 72 996.6
20260505080015 55 0.0 0.0 0.00 0.00 0.00 72 996.2
20260505075016 55 0.0 0.0 0.00 0.00 0.00 74 996.0
20260505074015 56 0.0 0.0 0.00 0.00 0.00 73 996.0
20260505073015 56 0.0 0.0 0.00 0.00 0.00 71 996.2
20260505072015 56 0.0 0.0 0.00 0.00 0.00 70 996.2
20260505071016 57 0.0 0.0 0.00 0.00 0.00 68 996.2
20260505070015 57 0.0 0.0 0.00 0.00 0.00 67 996.3
20260505065015 57 0.0 0.0 0.00 0.00 0.00 66 996.2
20260505064015 58 0.0 0.0 0.00 0.00 0.00 64 996.3
20260505063015 58 0.0 0.0 0.00 0.00 0.00 62 996.3
20260505062015 59 0.0 0.0 0.00 0.00 0.00 61 996.4
20260505061015 59 0.0 0.0 0.00 0.00 0.00 60 996.4
20260505060015 60 0.0 0.0 0.00 0.00 0.00 58 996.4
20260505055015 61 0.0 0.0 0.00 0.00 0.00 57 996.3
20260505054017 61 0.0 0.0 0.00 0.00 0.00 56 996.3
20260505053017 61 0.0 0.0 0.00 0.00 0.00 55 996.2
20260505052017 61 0.0 2.6 0.00 0.00 0.00 55 996.2
20260505051037 61 113 2.6 5.2 0.00 0.00 0.00 55 996.2
20260505041017 62 0.0 1.7 0.00 0.00 0.00 54 996.2
20260505040017 63 0.0 1.7 0.00 0.00 0.00 53 996.1
20260505035016 63 113 0.9 4.3 0.00 0.00 0.00 51 995.9
20260505034017 63 90 1.7 6.1 0.00 0.00 0.00 51 995.9
20260505033016 63 0.0 2.6 0.00 0.00 0.00 51 996.0
20260505032016 63 113 0.9 5.2 0.00 0.00 0.00 50 996.1
20260505031036 64 68 0.9 5.2 0.00 0.00 0.00 49 996.1
20260505030016 64 0.0 3.5 0.00 0.00 0.00 48 996.2
20260505025016 65 68 0.9 5.2 0.00 0.00 0.00 47 996.2
20260505024016 65 0.0 3.5 0.00 0.00 0.00 47 996.2
20260505023016 65 68 1.7 7.0 0.00 0.00 0.00 46 996.2
20260505022016 65 90 1.7 5.2 0.00 0.00 0.00 46 996.3
20260505021036 66 113 0.9 2.6 0.00 0.00 0.00 47 996.4
20260505020016 66 0.0 0.0 0.00 0.00 0.00 46 996.4
20260505015016 66 0.0 0.0 0.00 0.00 0.00 45 996.3
20260505014016 66 0.0 1.7 0.00 0.00 0.00 45 996.3
20260505013016 66 0.0 0.0 0.00 0.00 0.00 45 996.3
20260505012016 66 90 1.7 6.1 0.00 0.00 0.00 45 996.1
20260505011016 66 113 1.7 6.1 0.00 0.00 0.00 45 996.0
20260505010016 66 45 0.9 6.1 0.00 0.00 0.00 44 995.8
20260505005016 67 90 1.7 5.2 0.00 0.00 0.00 44 995.8
20260505004016 67 113 1.7 5.2 0.00 0.00 0.00 43 995.8
20260505003016 67 90 1.7 7.0 0.00 0.00 0.00 43 995.6